Regional Weather Roundup
Issued by NWS

Home | Current Version | Previous Version | Text Only | Print | Product List | Glossary Off
Versions: 1 2 3 4 5 6 7 8 9 10 11 12 13 14 15 16 17 18 19 20 21 22 23 24 25 26 27 28 29 30 31 32 33 34 35 36 37 38 39 40 41 42 43 44 45 46 47 48 49 50

000
ASUS43 KLOT 262308
RWRIL

ILLINOIS REGIONAL WEATHER ROUNDUP
NATIONAL WEATHER SERVICE CHICAGO/ROMEOVILLE IL
600 PM CDT TUE MAY 26 2015

NOTE: "FAIR" INDICATES FEW OR NO CLOUDS BELOW 12,000 FEET WITH NO
SIGNIFICANT WEATHER AND/OR OBSTRUCTIONS TO VISIBILITY.

* THESE STATIONS ARE NOT UNDER NWS QUALITY CONTROL. THEY ALSO MAY NOT
  REPORT WEATHER SUCH AS PRECIPITATION OR FOG.

ILZ001-002-007-009-015-016-024-270000-
NORTHWEST ILLINOIS

CITY           SKY/WX    TMP DP  RH WIND       PRES   REMARKS
MOLINE         SUNNY     75  59  57 W17G24    29.78S
STERLING*      MOSUNNY  N/A N/A N/A W22       29.77S
SAVANNA*       CLOUDY    72  58  62 W14G24    29.76R
$$

ILZ003-004-008-010-011-017-018-270000-
NORTH CENTRAL ILLINOIS

CITY           SKY/WX    TMP DP  RH WIND       PRES   REMARKS
ROCKFORD       PTSUNNY   73  60  63 W18G31    29.76R
FREEPORT*      PTSUNNY   69  60  70 SW20G26   29.76S
ROCHELLE*      MOSUNNY   72  61  69 W26G32    29.78R
DE KALB*       PTSUNNY   71  60  67 W22G30    29.78S
PERU*          MOSUNNY   75  60  58 W21G36    29.80S
$$

ILZ005-006-012>014-019>023-270000-
NORTHEAST ILLINOIS

CITY           SKY/WX    TMP DP  RH WIND       PRES   REMARKS
CHICAGO-OHARE  MOSUNNY   72  61  68 SW20G28   29.76R
CHICAGO-MIDWAY MOSUNNY   75  62  64 SW23G30   29.78R
AURORA         RAIN      70  62  76 SW14G25   29.79R
LANSING*       PTSUNNY   73  58  59 SW23G29   29.81R
JOLIET*        PTSUNNY   74  65  75 SW12G20   29.81R
WAUKEGAN       MOSUNNY   73  61  65 S20G26    29.73S
DUPAGE AIRPORT MOSUNNY   72  63  73 SW24G31   29.77S
KANKAKEE*      MOSUNNY   73  64  73 SW18G26   29.85R
WHEELING       MOSUNNY   72  61  68 SW14G22   29.77S
MORRIS*        PTSUNNY   74  63  68 SW21G28   29.79R
ROMEOVILLE*    MOSUNNY   72  62  71 SW16      29.80R
NORTHERLY ISL    N/A     73  59  61 SW15        N/A
$$

LMZ740>746-270000-
SOUTHERN LAKE MICHIGAN

STATION/POSITION SKY/WX   TEMP    WIND        PRES    VSBY  WAVE
                          AIR SEA DIR/SP/G                  HT/PER
                          (F)     (DEG/KT/KT) (MB)    (MI)  (FT/S)
SOUTHERN BUOY              48 38  180/ 14/ 14 1008.0F         2/ 4
HARRISON CRIB              70     200/ 17/ 19   N/A
BURNHAM HARBOR             74     190/  9/ 18   N/A
CALUMET HARBOR             74     190/ 12/ 19   N/A
BURNS HARBOR               73     210/ 13/ 23 1009.5F
MICHIGAN CITY              74     180/ 18/ 22   N/A
MICHIGAN CITY 6N           66 52  220/ 14/ 19   N/A           2/ 3
ST. JOSEPH                 63 55  230/ 10/ 12   N/A           2/ 3
$$

ILZ025>027-034>036-040-047-049-050-058-095>099-270000-
WEST-CENTRAL ILLINOIS

CITY           SKY/WX    TMP DP  RH WIND       PRES   REMARKS
QUINCY         MOSUNNY   77  61  57 SW17G25   29.83F
GALESBURG*     PTSUNNY   73  60  63 SW15G24   29.81F
MACOMB*        MOSUNNY   75  60  60 SW15      29.84F
JACKSONVILLE*  MOSUNNY   78  62  58 SW15      29.86F HX  80
PITTSFIELD*    MOSUNNY   77  61  57 SW12G23   29.87F
$$

ILZ028>032-037-038-041>044-048-051>054-059>061-270000-
CENTRAL ILLINOIS

CITY           SKY/WX    TMP DP  RH WIND       PRES   REMARKS
PONTIAC        PTSUNNY   75  65  70 SW17G25   29.84S
BLOOMINGTON    PTSUNNY   75  64  68 SW14      29.87S
DECATUR        MOSUNNY   75  61  61 SW20      29.89S
PEORIA         MOSUNNY   77  60  55 SW13      29.83F
LACON*         SUNNY     74  59  58 SW13      29.80F
LINCOLN*       MOSUNNY   76  63  63 SW7       29.85R
SPRINGFIELD    PTSUNNY   77  62  59 SW13G22   29.87S
TAYLORVILLE    PTSUNNY   73  61  64 SW18      29.89S
$$

ILZ033-039-045-046-055>057-062-063-270000-
EAST-CENTRAL ILLINOIS

CITY           SKY/WX    TMP DP  RH WIND       PRES   REMARKS
CHAMPAIGN      CLOUDY    71  62  73 SW17G23   29.90S
DANVILLE*      CLOUDY    74  61  63 SW17G23   29.86S
RANTOUL*       CLOUDY    73  64  74 SW17G25   29.89S
MATTOON        CLOUDY    74  59  59 SW12      29.91F
PARIS*         PTSUNNY   78  57  49 SW20G26   29.92R
$$

ILZ079-100>102-270000-
SOUTHWEST ILLINOIS

CITY           SKY/WX    TMP DP  RH WIND       PRES   REMARKS
ALTON          PTSUNNY   77  66  69 SW9G18    29.90F
BELLEVILLE     MOSUNNY   78  62  59 SW12      29.91S
CAHOKIA*       MOSUNNY   79  60  52 S9        29.90F HX  80
SPARTA*        MOSUNNY   76  60  58 SW9G18    29.95F
$$

ILZ064>066-069>071-074>076-080>082-084>086-088>090-092>094-270000-
SOUTH-CENTRAL ILLINOIS

CITY           SKY/WX    TMP DP  RH WIND       PRES   REMARKS
CARBONDALE     MOSUNNY   75  62  64 SW17      29.96S
CAIRO*         MOSUNNY   75  64  69 S10       30.00R
EFFINGHAM*     PTSUNNY   77  56  48 S13       29.94S
MARION         PTSUNNY   75  64  69 MISG      29.98S
MT. VERNON     PTSUNNY   77  63  61 S14       29.95F
CENTRALIA*     MOSUNNY   80  56  44 SW15G22   29.93F HX  80
SALEM*         MOSUNNY   80  58  46 SW16      29.93F HX  80
METROPOLIS*    PTSUNNY   75  64  68 SW12G17   29.99S
$$

ILZ067-068-072-073-078-083-087-091-270000-
SOUTHEAST ILLINOIS

CITY           SKY/WX    TMP DP  RH WIND       PRES   REMARKS
LAWRENCEVILLE  MOSUNNY   77  58  51 SW20G28   29.95S
FLORA*         MOSUNNY   76  60  58 SW12G21   29.94S
FAIRFIELD*     PTSUNNY   76  61  59 SW14      29.94S
HARRISBURG*    PTSUNNY   76  62  60 SW16      29.98S
ROBINSON*      PTSUNNY   78  58  49 SW20G25   29.94S
CARMI*         PTSUNNY   79  55  44 SW12G21   29.96S
$$

ABBREVIATIONS USED IN REMARKS
   TC - TEMPERATURE IN CELSIUS
  WCI - WIND CHILL INDEX
   HX - HEAT INDEX
  VSB - VISIBILITY
$$




USA.gov is the U.S. government's official web portal to all federal, state and local government web resources and services.